User: anonymous
Location: Wayah Bald
(35.1806°N, 83.5603°W)
Time: 20:39:48
(UTC-04:00)
Language:

Meteor 1-27 Rocket - Orbit

View from above orbital plane
View from above orbital plane
View from above satellite
View from above satellite

Ground track
Ground track

The orbit data is extracted from the following two-line orbital elements,

1 09904U 77024B   14109.15411966 -.00000075  00000-0 -51821-4 0  9467
2 09904 081.2624 165.8364 0053346 342.5200 071.4664 14.06722896900403
Epoch (UTC): 19 April 2014 03:41:55
Eccentricity: 0.0053346
inclination: 81.2624°
perigee height: 832 km
apogee height: 909 km
right ascension of ascending node: 165.8364°
argument of perigee: 342.5200°
revolutions per day: 14.06722896
mean anomaly at epoch: 71.4664°
orbit number at epoch: 90040

The dashed part of the orbit path shows where the satellite is in the earth's shadow,  

DLR